EW5655 Weather Reports


time (UTC)temp
C
wind
direction
speed
KPH
gust
KPH
rain 1hr
cm
rain 24hr
cm
rain mn
cm
humidity
%
barometer
mb
20260906061537 26 190 0.0 3.2 0.00 0.00 0.00 47 1017.1
20260906061035 27 190 0.0 1.6 0.00 0.00 0.00 45 1017.2
20260906060534 27 190 0.0 1.6 0.00 0.00 0.00 44 1017.2
20260906060033 27 190 0.0 3.2 0.00 0.00 0.00 43 1017.2
20260906055532 27 190 1.6 3.2 0.00 0.00 0.00 43 1017.2
20260906055031 27 190 0.0 3.2 0.00 0.00 0.00 44 1017.1
20260906054539 27 190 0.0 3.2 0.00 0.00 0.00 45 1017.2
20260906054031 27 190 0.0 3.2 0.00 0.00 0.00 45 1017.2
20260906053531 27 190 0.0 6.4 0.00 0.00 0.00 45 1017.2
20260906053031 27 223 3.2 6.4 0.00 0.00 0.00 45 1017.2
20260906052532 27 63 0.0 0.0 0.00 0.00 0.00 44 1017.0
20260906052031 27 63 0.0 1.6 0.00 0.00 0.00 44 1017.0
20260906051531 27 63 0.0 3.2 0.00 0.00 0.00 43 1017.0
20260906051031 27 63 0.0 3.2 0.00 0.00 0.00 43 1017.0
20260906050531 27 57 0.0 3.2 0.00 0.00 0.00 43 1016.9
20260906050033 27 57 0.0 3.2 0.00 0.00 0.00 42 1016.9
20260906045531 28 57 0.0 3.2 0.00 0.00 0.00 41 1016.9
20260906045030 28 57 0.0 6.4 0.00 0.00 0.00 41 1016.9
20260906044530 28 47 0.0 8.0 0.00 0.00 0.00 41 1016.9
20260906044032 28 61 1.6 8.0 0.00 0.00 0.00 41 1016.9
20260906043529 28 62 1.6 6.4 0.00 0.00 0.00 41 1016.9
20260906043032 28 62 0.0 6.4 0.00 0.00 0.00 40 1016.9
20260906042530 28 62 0.0 6.4 0.00 0.00 0.00 40 1016.9
20260906042029 28 62 0.0 8.0 0.00 0.00 0.00 41 1016.9
20260906041529 28 62 3.2 8.0 0.00 0.00 0.00 40 1016.9
20260906041030 28 62 0.0 6.4 0.00 0.00 0.00 40 1016.9
20260906040530 28 62 0.0 6.4 0.00 0.00 0.00 40 1016.9
20260906040029 28 67 0.0 3.2 0.00 0.00 0.00 40 1016.9
20260906035529 28 73 0.0 3.2 0.00 0.00 0.00 41 1016.8
20260906035028 29 73 0.0 3.2 0.00 0.00 0.00 40 1016.8
20260906034528 30 49 0.0 3.2 0.00 0.00 0.00 39 1016.8
20260906034029 30 38 0.0 11.3 0.00 0.00 0.00 38 1016.7
20260906033528 30 22 3.2 11.3 0.00 0.00 0.00 38 1016.7
20260906033028 30 10 1.6 6.4 0.00 0.00 0.00 38 1016.7
20260906032526 30 47 0.0 9.7 0.00 0.00 0.00 37 1016.7
20260906032026 30 9 1.6 12.9 0.00 0.00 0.00 37 1016.6
20260906031526 30 351 3.2 12.9 0.00 0.00 0.00 36 1016.6
20260906031024 30 4 1.6 8.0 0.00 0.00 0.00 36 1016.5
20260906030522 30 44 3.2 8.0 0.00 0.00 0.00 36 1016.5
20260906030023 30 349 1.6 8.0 0.00 0.00 0.00 36 1016.4
20260906025524 30 350 0.0 9.7 0.00 0.00 0.00 36 1016.4
20260906025022 30 15 0.0 12.9 0.00 0.00 0.00 36 1016.3
20260906024522 30 4 3.2 12.9 0.00 0.00 0.00 37 1016.2
20260906024022 30 4 0.0 0.0 0.00 0.00 0.00 38 1016.2
20260906023525 30 4 0.0 0.0 0.00 0.00 0.00 38 1016.1
20260906023024 30 4 0.0 3.2 0.00 0.00 0.00 37 1016.1
20260906022521 30 4 0.0 3.2 0.00 0.00 0.00 38 1016.1
20260906022023 30 4 1.6 3.2 0.00 0.00 0.00 37 1016.1
20260906021522 30 7 0.0 6.4 0.00 0.00 0.00 37 1016.0
20260906021027 30 355 0.0 11.3 0.00 0.00 0.00 37 1016.0
20260906020521 30 354 3.2 12.9 0.00 0.00 0.00 37 1016.1
20260906020021 30 350 3.2 12.9 0.00 0.00 0.00 37 1016.1
20260906015522 30 344 4.8 12.9 0.00 0.05 0.00 36 1016.0
20260906015021 31 316 4.8 12.9 0.00 0.05 0.00 35 1015.9
20260906014525 31 24 6.4 16.1 0.00 0.05 0.00 35 1015.9
20260906014024 31 358 4.8 17.7 0.00 0.05 0.00 34 1015.8
20260906013520 31 11 9.7 17.7 0.00 0.05 0.00 34 1015.8
20260906013029 31 338 8.0 16.1 0.00 0.05 0.00 33 1015.7
20260906012520 31 342 9.7 16.1 0.00 0.05 0.00 33 1015.8
20260906012024 32 3 3.2 12.9 0.00 0.05 0.00 33 1015.7
20260906011520 32 354 1.6 9.7 0.00 0.05 0.00 33 1015.6
20260906011019 32 286 1.6 9.7 0.00 0.05 0.00 33 1015.5
20260906010619 32 210 3.2 9.7 0.00 0.05 0.00 33 1015.4
20260906010019 32 227 3.2 9.7 0.00 0.05 0.00 33 1015.3
20260906005518 32 223 4.8 11.3 0.00 0.10 0.00 33 1015.3
20260906005018 32 261 4.8 11.3 0.00 0.10 0.00 33 1015.3
20260906004518 32 242 4.8 14.5 0.00 0.10 0.00 33 1015.2
20260906004021 32 222 6.4 14.5 0.00 0.10 0.00 33 1015.2
20260906003520 32 241 6.4 16.1 0.00 0.10 0.00 31 1015.2
20260906003018 33 175 6.4 16.1 0.00 0.10 0.00 32 1015.1
20260906002517 33 200 6.4 11.3 0.00 0.10 0.00 31 1015.2
20260906002018 33 180 3.2 11.3 0.00 0.10 0.00 30 1015.2
20260906001520 33 188 3.2 9.7 0.00 0.10 0.00 29 1015.2
20260906001017 33 223 4.8 9.7 0.00 0.10 0.00 29 1015.2
20260906000517 33 269 3.2 9.7 0.00 0.10 0.00 30 1015.2
20260906000035 33 245 4.8 9.7 0.00 0.10 0.00 30 1015.3
20260905235517 33 263 3.2 8.0 0.00 0.10 0.00 29 1015.2
20260905235018 33 263 4.8 9.7 0.00 0.10 0.00 29 1015.3
20260905234516 33 248 3.2 14.5 0.00 0.10 0.00 29 1015.2
20260905234016 33 281 9.7 14.5 0.00 0.10 0.00 29 1015.2
20260905233516 33 276 4.8 9.7 0.00 0.10 0.00 28 1015.1
20260905233016 34 217 1.6 9.7 0.00 0.10 0.00 27 1015.2
20260905232517 34 180 6.4 9.7 0.00 0.10 0.00 27 1015.3
20260905232016 35 153 0.0 8.0 0.00 0.10 0.00 27 1015.3
20260905231516 35 207 3.2 12.9 0.00 0.10 0.00 26 1015.3
20260905231015 35 161 4.8 11.3 0.00 0.10 0.00 26 1015.2
20260905230515 34 244 1.6 12.9 0.00 0.10 0.00 28 1015.3
20260905230014 34 216 9.7 14.5 0.00 0.10 0.00 27 1015.3
20260905225518 35 249 8.0 14.5 0.00 0.10 0.00 27 1015.3
20260905225013 35 265 3.2 8.0 0.00 0.10 0.00 27 1015.4
20260905224513 35 213 1.6 8.0 0.00 0.10 0.00 28 1015.4
20260905224012 35 182 3.2 8.0 0.00 0.10 0.00 27 1015.4
20260905223512 35 1 1.6 8.0 0.00 0.10 0.00 27 1015.4
20260905223011 34 203 1.6 6.4 0.00 0.10 0.00 29 1015.5
20260905222511 34 214 0.0 8.0 0.00 0.10 0.00 28 1015.6
20260905222011 35 180 3.2 8.0 0.00 0.10 0.00 27 1015.5
20260905221511 35 222 3.2 11.3 0.00 0.10 0.00 27 1015.6
20260905221011 35 158 3.2 12.9 0.00 0.10 0.00 28 1015.6
20260905220513 35 200 4.8 12.9 0.00 0.10 0.00 28 1015.5
20260905220012 35 239 6.4 14.5 0.00 0.10 0.00 28 1015.6
20260905215510 35 302 4.8 14.5 0.00 0.10 0.00 28 1015.6
20260905215012 35 263 8.0 14.5 0.00 0.10 0.00 28 1015.6
20260905214508 35 315 4.8 14.5 0.00 0.10 0.00 28 1015.6
20260905214008 34 249 3.2 9.7 0.00 0.10 0.00 30 1015.7
20260905213507 34 316 0.0 12.9 0.00 0.10 0.00 31 1015.8
20260905213006 33 221 3.2 12.9 0.00 0.10 0.00 30 1016.0
20260905212507 34 236 3.2 11.3 0.00 0.10 0.00 29 1016.1
20260905212004 35 165 4.8 12.9 0.00 0.10 0.00 29 1016.2
20260905211505 35 271 4.8 12.9 0.00 0.10 0.00 30 1016.3
20260905211003 35 296 8.0 12.9 0.00 0.10 0.00 30 1016.3
20260905210503 34 151 0.0 11.3 0.00 0.10 0.00 30 1016.5
20260905210002 35 334 4.8 14.5 0.00 0.10 0.00 30 1016.6
20260905205501 34 272 3.2 14.5 0.00 0.10 0.00 31 1016.7
20260905205103 33 157 1.6 14.5 0.00 0.10 0.00 30 1016.8
20260905204603 34 207 6.4 11.3 0.00 0.10 0.00 30 1016.9
20260905204059 35 132 1.6 11.3 0.00 0.10 0.00 29 1016.9
20260905203558 33 76 3.2 11.3 0.00 0.10 0.00 33 1017.0
20260905203057 33 157 1.6 11.3 0.00 0.10 0.00 31 1017.0
20260905202557 33 272 3.2 12.9 0.00 0.10 0.00 31 1017.1
20260905202056 33 235 8.0 12.9 0.00 0.10 0.00 30 1017.1
20260905201556 33 266 6.4 16.1 0.00 0.10 0.00 31 1017.1
20260905201055 33 267 4.8 16.1 0.00 0.10 0.00 33 1017.2
20260905200555 33 225 4.8 12.9 0.00 0.10 0.00 32 1017.3
20260905200055 33 310 6.4 14.5 0.00 0.10 0.00 33 1017.3
20260905195553 33 244 3.2 16.1 0.00 0.10 0.00 33 1017.5
20260905195051 33 205 4.8 12.9 0.00 0.10 0.00 34 1017.5
20260905194607 32 149 6.4 14.5 0.00 0.10 0.00 35 1017.5
20260905194051 33 236 9.7 14.5 0.00 0.10 0.00 36 1017.7
20260905193553 32 118 3.2 14.5 0.00 0.10 0.00 35 1017.7
20260905193050 32 165 8.0 14.5 0.00 0.10 0.00 36 1017.8
20260905192549 32 199 4.8 14.5 0.00 0.10 0.00 37 1017.9
20260905192051 32 212 1.6 14.5 0.00 0.10 0.00 38 1018.1
20260905191556 32 233 9.7 14.5 0.00 0.10 0.00 37 1018.2
20260905191049 32 286 6.4 14.5 0.00 0.10 0.00 38 1018.2
20260905190551 32 213 6.4 14.5 0.00 0.10 0.00 38 1018.3
20260905190048 31 266 3.2 14.5 0.00 0.10 0.00 38 1018.4
20260905185550 32 190 6.4 14.5 0.00 0.10 0.00 38 1018.4
20260905185046 31 171 6.4 12.9 0.00 0.10 0.00 39 1018.6
20260905184607 31 119 1.6 11.3 0.00 0.10 0.00 39 1018.6
20260905184045 31 211 4.8 12.9 0.00 0.10 0.00 39 1018.7
20260905183544 31 178 6.4 12.9 0.00 0.10 0.00 39 1018.7
20260905183048 31 254 4.8 12.9 0.00 0.10 0.00 40 1018.9
20260905182543 31 295 6.4 12.9 0.00 0.10 0.00 40 1018.9
20260905182043 31 167 0.0 8.0 0.00 0.10 0.00 42 1019.0
20260905181550 30 198 0.0 9.7 0.00 0.10 0.00 42 1019.0
20260905181040 30 192 1.6 9.7 0.00 0.10 0.00 43 1019.1
20260905180539 30 243 3.2 8.0 0.00 0.10 0.00 44 1019.2
20260905180037 30 238 3.2 8.0 0.00 0.10 0.00 43 1019.1
20260905175537 30 328 1.6 11.3 0.00 0.10 0.00 44 1019.2
20260905175035 30 146 1.6 11.3 0.00 0.10 0.00 44 1019.2
20260905174535 30 221 4.8 11.3 0.00 0.10 0.00 46 1019.3
20260905174033 30 200 4.8 12.9 0.00 0.10 0.00 45 1019.3
20260905173532 29 184 6.4 12.9 0.00 0.10 0.00 47 1019.4
20260905173033 29 321 4.8 9.7 0.00 0.10 0.00 47 1019.4
20260905172530 28 206 1.6 11.3 0.00 0.10 0.00 48 1019.4
20260905172030 29 227 3.2 11.3 0.00 0.10 0.00 48 1019.5
20260905171528 28 240 1.6 8.0 0.00 0.10 0.00 50 1019.5
20260905171030 28 221 1.6 9.7 0.00 0.10 0.00 51 1019.5
20260905170527 28 132 4.8 9.7 0.00 0.10 0.00 50 1019.5
20260905170026 28 190 1.6 9.7 0.00 0.10 0.00 49 1019.5
20260905165525 28 200 3.2 8.0 0.00 0.10 0.00 50 1019.4
20260905165022 28 119 0.0 6.4 0.00 0.10 0.00 52 1019.5
20260905164521 27 329 0.0 8.0 0.00 0.10 0.00 55 1019.5
20260905164020 27 290 1.6 8.0 0.00 0.10 0.00 55 1019.5
20260905163519 27 297 0.0 3.2 0.00 0.10 0.00 55 1019.6
20260905163019 26 297 0.0 6.4 0.00 0.10 0.00 55 1019.6
20260905162519 27 223 0.0 6.4 0.00 0.10 0.00 57 1019.6
20260905162017 26 223 0.0 8.0 0.00 0.10 0.00 56 1019.6
20260905161515 26 269 0.0 8.0 0.00 0.10 0.00 56 1019.6
20260905161014 26 298 0.0 8.0 0.00 0.10 0.00 58 1019.6
20260905160512 26 234 1.6 8.0 0.00 0.10 0.00 58 1019.6
20260905160011 26 269 0.0 8.0 0.00 0.10 0.00 58 1019.6
20260905155512 26 197 3.2 8.0 0.00 0.10 0.00 59 1019.6
20260905155008 26 242 1.6 8.0 0.00 0.10 0.00 59 1019.6
20260905154506 25 228 3.2 8.0 0.00 0.10 0.00 60 1019.6
20260905154005 25 195 1.6 8.0 0.00 0.10 0.00 61 1019.6
20260905153504 25 180 3.2 8.0 0.00 0.10 0.00 60 1019.6
20260905153002 25 172 1.6 9.7 0.00 0.10 0.00 61 1019.7
20260905152501 25 192 1.6 9.7 0.00 0.10 0.00 62 1019.6
20260905152104 25 205 1.6 8.0 0.00 0.10 0.00 61 1019.6
20260905151608 25 195 1.6 9.7 0.00 0.10 0.00 62 1019.6
20260905151059 25 181 1.6 9.7 0.00 0.10 0.00 63 1019.6
20260905150557 25 220 0.0 8.0 0.00 0.10 0.00 63 1019.6
20260905150057 24 220 1.6 8.0 0.00 0.10 0.00 64 1019.5
20260905145556 24 155 3.2 9.7 0.00 0.10 0.00 66 1019.5
20260905145054 24 172 3.2 9.7 0.00 0.10 0.00 65 1019.6
20260905144554 24 131 6.4 11.3 0.00 0.10 0.00 65 1019.5
20260905144052 23 125 3.2 12.9 0.00 0.10 0.00 67 1019.5
20260905143551 23 148 4.8 12.9 0.00 0.10 0.00 68 1019.5
20260905143050 23 156 3.2 9.7 0.00 0.10 0.00 69 1019.5
20260905142550 23 172 4.8 9.7 0.00 0.10 0.00 69 1019.5
20260905142053 23 215 1.6 11.3 0.00 0.10 0.00 69 1019.5
20260905141548 23 185 4.8 9.7 0.00 0.10 0.00 69 1019.4
20260905141050 23 128 4.8 9.7 0.00 0.10 0.00 69 1019.4
20260905140546 22 163 3.2 9.7 0.00 0.10 0.00 70 1019.3
20260905140048 22 167 4.8 12.9 0.00 0.10 0.00 69 1019.3
20260905135545 22 161 3.2 12.9 0.00 0.13 0.00 70 1019.3
20260905135042 22 148 3.2 9.7 0.00 0.13 0.00 71 1019.2
20260905134541 22 142 4.8 11.3 0.00 0.13 0.00 71 1019.2
20260905134040 22 134 4.8 11.3 0.00 0.13 0.00 71 1019.1
20260905133538 22 150 6.4 9.7 0.00 0.13 0.00 72 1019.0
20260905133044 22 126 3.2 9.7 0.00 0.13 0.00 72 1019.0
20260905132537 21 126 4.8 9.7 0.00 0.13 0.00 72 1019.0
20260905132036 21 133 3.2 9.7 0.00 0.13 0.00 73 1019.0
20260905131541 21 118 1.6 8.0 0.00 0.13 0.00 73 1018.9
20260905131036 21 120 4.8 9.7 0.00 0.13 0.00 73 1018.9
20260905130534 21 138 4.8 9.7 0.00 0.13 0.00 73 1018.8
20260905130033 21 142 1.6 6.4 0.00 0.13 0.00 72 1018.8
20260905125532 21 146 0.0 6.4 0.00 0.20 0.00 72 1018.7
20260905125031 21 139 0.0 9.7 0.00 0.20 0.00 71 1018.7
20260905124534 21 148 4.8 8.0 0.00 0.20 0.00 71 1018.6
20260905124032 21 147 1.6 6.4 0.00 0.20 0.00 70 1018.6
20260905123531 21 144 1.6 6.4 0.00 0.20 0.00 70 1018.5
20260905123028 21 152 1.6 6.4 0.00 0.20 0.00 70 1018.5
20260905122528 21 152 1.6 4.8 0.00 0.20 0.00 70 1018.5
20260905122028 21 152 0.0 6.4 0.00 0.20 0.00 69 1018.4
20260905121527 21 152 0.0 9.7 0.00 0.20 0.00 69 1018.5
20260905121028 21 168 1.6 9.7 0.00 0.20 0.00 69 1018.5
20260905120527 21 146 1.6 8.0 0.00 0.20 0.00 69 1018.4
20260905120026 21 165 1.6 11.3 0.00 0.20 0.00 69 1018.4
20260905115526 21 151 1.6 11.3 0.00 0.23 0.00 69 1018.4
20260905115027 21 159 3.2 11.3 0.00 0.23 0.00 69 1018.4
20260905114524 21 171 0.0 12.9 0.00 0.23 0.00 68 1018.3
20260905114023 21 172 4.8 12.9 0.00 0.23 0.00 68 1018.3
20260905113523 21 178 3.2 8.0 0.00 0.23 0.00 69 1018.4
20260905113022 21 194 1.6 8.0 0.00 0.23 0.00 70 1018.3
20260905112522 21 194 1.6 8.0 0.00 0.23 0.00 69 1018.2
20260905112024 21 41 0.0 3.2 0.00 0.23 0.00 71 1018.2
20260905111529 21 41 0.0 3.2 0.00 0.23 0.00 69 1018.1
20260905111022 21 41 1.6 3.2 0.00 0.23 0.00 68 1018.1
20260905110519 21 41 0.0 1.6 0.00 0.23 0.00 68 1017.9
20260905110034 21 41 0.0 6.4 0.00 0.23 0.00 70 1018.0
20260905105520 21 41 1.6 4.8 0.00 0.25 0.00 70 1018.0
20260905105020 21 41 0.0 3.2 0.00 0.25 0.00 70 1018.0
20260905104521 21 41 0.0 1.6 0.00 0.25 0.00 70 1018.0
20260905104017 21 41 0.0 0.0 0.00 0.25 0.00 69 1017.9
20260905103519 21 41 0.0 0.0 0.00 0.25 0.00 70 1017.9
20260905103017 21 41 0.0 0.0 0.00 0.25 0.00 70 1017.8
20260905102520 21 41 0.0 0.0 0.00 0.25 0.00 69 1017.7
20260905102016 21 41 0.0 1.6 0.00 0.25 0.00 69 1017.7
20260905101516 21 41 0.0 1.6 0.00 0.25 0.00 68 1017.7
20260905101015 22 41 0.0 1.6 0.00 0.25 0.00 69 1017.6
20260905100515 21 41 0.0 1.6 0.00 0.25 0.00 70 1017.6
20260905100015 21 41 0.0 0.0 0.00 0.25 0.00 70 1017.7
20260905095519 21 41 0.0 1.6 0.00 0.25 0.00 70 1017.7
20260905095016 22 41 0.0 1.6 0.00 0.25 0.00 70 1017.7
20260905094514 22 41 0.0 0.0 0.00 0.25 0.00 69 1017.6
20260905094012 22 41 0.0 1.6 0.00 0.25 0.00 68 1017.5
20260905093512 22 41 0.0 3.2 0.00 0.25 0.00 66 1017.5
20260905093015 22 41 0.0 3.2 0.00 0.25 0.00 66 1017.5
20260905092511 22 41 0.0 1.6 0.00 0.25 0.00 66 1017.5
20260905092011 22 41 0.0 3.2 0.00 0.25 0.00 67 1017.5
20260905091514 22 41 0.0 3.2 0.00 0.25 0.00 67 1017.4
20260905091010 22 1 0.0 3.2 0.00 0.25 0.00 69 1017.5
20260905090509 22 1 0.0 1.6 0.00 0.25 0.00 67 1017.5
20260905090016 22 1 0.0 1.6 0.00 0.25 0.00 67 1017.5
20260905085509 22 1 0.0 1.6 0.00 0.25 0.00 67 1017.5
20260905085008 22 1 0.0 1.6 0.00 0.25 0.00 66 1017.5
20260905084508 22 1 0.0 3.2 0.00 0.25 0.00 66 1017.6
20260905084007 22 1 0.0 3.2 0.00 0.25 0.00 68 1017.6
20260905083507 22 1 0.0 3.2 0.00 0.25 0.00 68 1017.6
20260905083007 23 1 0.0 3.2 0.00 0.25 0.00 67 1017.5
20260905082506 23 1 0.0 1.6 0.00 0.25 0.00 66 1017.5
20260905082008 23 1 0.0 1.6 0.00 0.25 0.00 68 1017.5
20260905081505 23 1 0.0 1.6 0.00 0.25 0.00 67 1017.6
20260905081006 23 1 0.0 1.6 0.00 0.25 0.00 65 1017.5
20260905080503 23 1 0.0 0.0 0.00 0.25 0.00 66 1017.5
20260905080004 23 1 0.0 3.2 0.00 0.25 0.00 64 1017.5
20260905075502 23 1 0.0 3.2 0.00 0.25 0.00 62 1017.5
20260905075003 23 1 0.0 3.2 0.00 0.25 0.00 62 1017.6
20260905074501 23 1 1.6 6.4 0.00 0.25 0.00 63 1017.6
20260905074000 23 1 1.6 4.8 0.00 0.25 0.00 64 1017.7
20260905073602 23 1 0.0 1.6 0.00 0.25 0.00 65 1017.7
20260905073101 23 1 0.0 1.6 0.00 0.25 0.00 65 1017.7
20260905072558 23 1 0.0 3.2 0.00 0.25 0.00 63 1017.8
20260905072059 24 1 0.0 3.2 0.00 0.25 0.00 62 1017.8
20260905071558 24 1 0.0 8.0 0.00 0.25 0.00 61 1017.8
20260905071058 24 1 1.6 8.0 0.00 0.25 0.00 61 1017.7
20260905070555 24 1 1.6 4.8 0.00 0.25 0.00 61 1017.9
20260905070055 24 1 3.2 6.4 0.00 0.25 0.00 61 1017.8
20260905065554 24 56 0.0 6.4 0.00 0.25 0.00 59 1017.8
20260905065054 25 56 0.0 3.2 0.00 0.25 0.00 60 1017.7
20260905064552 25 56 0.0 3.2 0.00 0.25 0.00 58 1017.7
20260905064051 25 56 0.0 3.2 0.00 0.25 0.00 58 1017.7
20260905063551 25 56 0.0 6.4 0.00 0.25 0.00 58 1017.7
20260905063055 25 56 0.0 6.4 0.00 0.25 0.00 57 1017.7
20260905062551 25 38 0.0 1.6 0.00 0.25 0.00 58 1017.7
20260905062049 25 38 0.0 1.6 0.00 0.25 0.00 57 1017.7